• în România
  • Lista ţărilor
  • Pe 7 zile
  • Temperatura apei
  • Hartă satelitară
  • Meteo pe hartă
  • Widget-uri
  • user-avatar
    Intrare

    Meteo pe oră la Bregenz

    Astăzi, 29 Mai, Luni

    Timp Temperatura Precipitaţii Vânt Presiune Umiditate
    00:00 +10°C° 0 mm 1 m/s 649 mmHg 85%
    01:00 +10°C° 0 mm 2 m/s 649 mmHg 83%
    02:00 +9°C° 0 mm 2 m/s 648 mmHg 83%
    03:00 +9°C° 0 mm 2 m/s 648 mmHg 84%
    04:00 +9°C° 0 mm 2 m/s 648 mmHg 84%
    05:00 +12°C° 0 mm 2 m/s 648 mmHg 80%
    06:00 +14°C° 0 mm 1 m/s 649 mmHg 76%
    07:00 +16°C° 0 mm 1 m/s 649 mmHg 72%
    08:00 +19°C° 0 mm 1 m/s 650 mmHg 63%
    09:00 +21°C° 0 mm 1 m/s 650 mmHg 54%
    10:00 +22°C° 0 mm 0 m/s 650 mmHg 46%
    11:00 +24°C° 0 mm 1 m/s 650 mmHg 44%
    12:00 +25°C° 0 mm 1 m/s 650 mmHg 42%
    13:00 +25°C° 0 mm 2 m/s 650 mmHg 40%
    14:00 +25°C° 0,3 mm 2 m/s 650 mmHg 45%
    15:00 +24°C° 0,3 mm 2 m/s 650 mmHg 50%
    16:00 +24°C° 0,3 mm 2 m/s 649 mmHg 55%
    17:00 +21°C° 0,7 mm 2 m/s 649 mmHg 65%
    18:00 +21°C° 0,7 mm 1 m/s 648 mmHg 76%
    19:00 +19°C° 0,7 mm 1 m/s 648 mmHg 86%
    20:00 +16°C° 1,4 mm 1 m/s 648 mmHg 88%
    21:00 +15°C° 1,4 mm 1 m/s 648 mmHg 91%
    22:00 +13°C° 1,4 mm 2 m/s 647 mmHg 94%
    23:00 +13°C° 0,9 mm 1 m/s 647 mmHg 94%

    Mâine, 30 Mai, Marţi

    Timp Temperatura Precipitaţii Vânt Presiune Umiditate
    00:00 +13°C° 0,9 mm 1 m/s 647 mmHg 95%
    01:00 +12°C° 0,9 mm 1 m/s 647 mmHg 95%
    02:00 +12°C° 0,7 mm 1 m/s 647 mmHg 95%
    03:00 +12°C° 0,7 mm 1 m/s 647 mmHg 95%
    04:00 +12°C° 0,7 mm 1 m/s 647 mmHg 95%
    05:00 +13°C° 0,3 mm 1 m/s 648 mmHg 93%
    06:00 +14°C° 0,3 mm 1 m/s 648 mmHg 91%
    07:00 +14°C° 0,3 mm 0 m/s 648 mmHg 89%
    08:00 +16°C° 0,3 mm 1 m/s 649 mmHg 82%
    09:00 +18°C° 0,3 mm 1 m/s 649 mmHg 75%
    10:00 +19°C° 0,3 mm 1 m/s 649 mmHg 68%
    11:00 +20°C° 0,4 mm 1 m/s 649 mmHg 65%
    12:00 +20°C° 0,4 mm 2 m/s 650 mmHg 62%
    13:00 +20°C° 0,4 mm 2 m/s 650 mmHg 60%
    14:00 +20°C° 0,5 mm 2 m/s 650 mmHg 61%
    15:00 +20°C° 0,5 mm 2 m/s 650 mmHg 62%
    16:00 +20°C° 0,5 mm 2 m/s 649 mmHg 63%
    17:00 +20°C° 0,5 mm 1 m/s 649 mmHg 71%
    18:00 +19°C° 0,5 mm 1 m/s 649 mmHg 79%
    19:00 +16°C° 0,5 mm 1 m/s 649 mmHg 87%
    20:00 +14°C° 0,5 mm 1 m/s 649 mmHg 90%
    21:00 +12°C° 0,5 mm 1 m/s 648 mmHg 93%
    22:00 +8°C° 0,5 mm 0 m/s 648 mmHg 95%
    23:00 +8°C° 0,2 mm 0 m/s 648 mmHg 96%

    Poimâine, 31 Mai, Miercuri

    Timp Temperatura Precipitaţii Vânt Presiune Umiditate
    00:00 +8°C° 0,2 mm 0 m/s 648 mmHg 96%
    01:00 +7°C° 0,2 mm 0 m/s 648 mmHg 97%
    02:00 +7°C° 0 mm 0 m/s 648 mmHg 97%
    03:00 +6°C° 0 mm 0 m/s 648 mmHg 97%
    04:00 +6°C° 0 mm 0 m/s 647 mmHg 97%
    05:00 +8°C° 0 mm 0 m/s 648 mmHg 94%
    06:00 +11°C° 0 mm 0 m/s 649 mmHg 92%
    07:00 +13°C° 0 mm 0 m/s 650 mmHg 89%
    08:00 +15°C° 0,1 mm 0 m/s 650 mmHg 82%
    09:00 +18°C° 0,1 mm 1 m/s 651 mmHg 76%
    10:00 +19°C° 0,1 mm 1 m/s 651 mmHg 70%
    11:00 +18°C° 0,7 mm 2 m/s 651 mmHg 72%
    12:00 +18°C° 0,7 mm 2 m/s 651 mmHg 75%
    13:00 +18°C° 0,7 mm 2 m/s 650 mmHg 78%
    14:00 +18°C° 1,4 mm 2 m/s 650 mmHg 80%
    15:00 +18°C° 1,4 mm 2 m/s 650 mmHg 83%
    16:00 +17°C° 1,4 mm 2 m/s 650 mmHg 86%
    17:00 +16°C° 1,7 mm 2 m/s 650 mmHg 88%
    18:00 +15°C° 1,7 mm 2 m/s 649 mmHg 91%
    19:00 +15°C° 1,7 mm 2 m/s 649 mmHg 93%
    20:00 +13°C° 1,8 mm 2 m/s 649 mmHg 94%
    21:00 +12°C° 1,8 mm 2 m/s 649 mmHg 96%
    22:00 +10°C° 1,8 mm 2 m/s 649 mmHg 97%
    23:00 +10°C° 0,7 mm 1 m/s 648 mmHg 98%

    1 Iunie, Joi

    Timp Temperatura Precipitaţii Vânt Presiune Umiditate
    00:00 +10°C° 0,7 mm 1 m/s 648 mmHg 98%
    01:00 +10°C° 0,7 mm 1 m/s 648 mmHg 98%
    02:00 +9°C° 0,4 mm 1 m/s 648 mmHg 98%
    03:00 +9°C° 0,4 mm 1 m/s 648 mmHg 98%
    04:00 +9°C° 0,4 mm 1 m/s 647 mmHg 98%
    05:00 +10°C° 0,3 mm 1 m/s 648 mmHg 97%
    06:00 +11°C° 0,3 mm 1 m/s 648 mmHg 96%
    07:00 +11°C° 0,3 mm 1 m/s 648 mmHg 95%
    08:00 +12°C° 0,2 mm 1 m/s 649 mmHg 92%
    09:00 +13°C° 0,2 mm 1 m/s 649 mmHg 90%
    10:00 +13°C° 0,2 mm 1 m/s 649 mmHg 87%
    11:00 +14°C° 0,3 mm 2 m/s 649 mmHg 86%
    12:00 +14°C° 0,3 mm 2 m/s 649 mmHg 84%
    13:00 +15°C° 0,3 mm 2 m/s 649 mmHg 82%
    14:00 +15°C° 0,3 mm 2 m/s 649 mmHg 81%
    15:00 +15°C° 0,3 mm 2 m/s 649 mmHg 80%
    16:00 +15°C° 0,3 mm 2 m/s 649 mmHg 79%
    17:00 +15°C° 0,3 mm 1 m/s 649 mmHg 83%
    18:00 +14°C° 0,3 mm 1 m/s 649 mmHg 86%
    19:00 +14°C° 0,3 mm 1 m/s 649 mmHg 90%
    20:00 +12°C° 0,1 mm 1 m/s 648 mmHg 92%
    21:00 +10°C° 0,1 mm 1 m/s 648 mmHg 95%
    22:00 +9°C° 0,1 mm 1 m/s 648 mmHg 97%
    23:00 +8°C° 0 mm 1 m/s 647 mmHg 97%

    2 Iunie, Vineri

    Timp Temperatura Precipitaţii Vânt Presiune Umiditate
    00:00 +6°C° 0 mm 0 m/s 647 mmHg 97%
    01:00 +6°C° 0 mm 0 m/s 647 mmHg 97%
    02:00 +5°C° 0 mm 0 m/s 646 mmHg 97%
    03:00 +5°C° 0 mm 0 m/s 646 mmHg 97%
    04:00 +4°C° 0 mm 0 m/s 646 mmHg 97%
    05:00 +7°C° 0 mm 0 m/s 647 mmHg 93%
    06:00 +9°C° 0 mm 0 m/s 648 mmHg 88%
    07:00 +12°C° 0 mm 0 m/s 648 mmHg 84%
    08:00 +14°C° 0 mm 0 m/s 649 mmHg 75%
    09:00 +18°C° 0 mm 1 m/s 650 mmHg 66%
    10:00 +20°C° 0 mm 1 m/s 650 mmHg 57%
    11:00 +20°C° 0,1 mm 1 m/s 650 mmHg 55%
    12:00 +21°C° 0,1 mm 1 m/s 650 mmHg 52%
    13:00 +21°C° 0,1 mm 2 m/s 650 mmHg 50%
    14:00 +20°C° 0,1 mm 2 m/s 650 mmHg 53%
    15:00 +20°C° 0,1 mm 2 m/s 650 mmHg 55%
    16:00 +20°C° 0,1 mm 2 m/s 650 mmHg 58%
    17:00 +19°C° 0,1 mm 2 m/s 649 mmHg 66%
    18:00 +18°C° 0,1 mm 1 m/s 649 mmHg 74%
    19:00 +16°C° 0,1 mm 1 m/s 648 mmHg 82%
    20:00 +14°C° 0 mm 1 m/s 648 mmHg 86%
    21:00 +11°C° 0 mm 1 m/s 647 mmHg 90%
    22:00 +9°C° 0 mm 1 m/s 647 mmHg 94%
    23:00 +9°C° 0 mm 1 m/s 647 mmHg 93%

    3 Iunie, Sâmbătă

    Timp Temperatura Precipitaţii Vânt Presiune Umiditate
    00:00 +9°C° 0 mm 1 m/s 647 mmHg 93%
    01:00 +9°C° 0 mm 1 m/s 647 mmHg 92%
    02:00 +9°C° 0 mm 1 m/s 646 mmHg 92%
    03:00 +9°C° 0 mm 1 m/s 646 mmHg 91%
    04:00 +9°C° 0 mm 1 m/s 646 mmHg 91%
    05:00 +10°C° 0 mm 1 m/s 647 mmHg 87%
    06:00 +12°C° 0 mm 1 m/s 647 mmHg 84%
    07:00 +14°C° 0 mm 1 m/s 648 mmHg 80%
    08:00 +18°C° 0 mm 1 m/s 648 mmHg 71%
    09:00 +20°C° 0 mm 1 m/s 649 mmHg 62%
    10:00 +22°C° 0 mm 1 m/s 650 mmHg 54%
    11:00 +23°C° 0,2 mm 1 m/s 649 mmHg 53%
    12:00 +23°C° 0,2 mm 1 m/s 649 mmHg 53%
    13:00 +24°C° 0,2 mm 1 m/s 649 mmHg 52%
    14:00 +23°C° 0,5 mm 1 m/s 649 mmHg 55%
    15:00 +23°C° 0,5 mm 1 m/s 649 mmHg 58%
    16:00 +23°C° 0,5 mm 1 m/s 649 mmHg 60%
    17:00 +22°C° 0,4 mm 1 m/s 648 mmHg 69%
    18:00 +21°C° 0,4 mm 1 m/s 648 mmHg 77%
    19:00 +20°C° 0,4 mm 1 m/s 648 mmHg 86%
    20:00 +18°C° 0,2 mm 1 m/s 648 mmHg 87%
    21:00 +14°C° 0,2 mm 1 m/s 647 mmHg 89%
    22:00 +12°C° 0,2 mm 1 m/s 647 mmHg 91%
    23:00 +12°C° 0,1 mm 1 m/s 647 mmHg 91%
    Arată mai mult